GFSNW_sfc_dewp_153.txt.gz
Dewpoint
50 52 52 51 52 50 44 37 29 38 37 30 29 28 29 34 30 32 29 28 24 22 24 23 24 22 27 31 31 23 27 20 19 18 27 28 24 21 17 11 8 14 10 12
49 52 51 51 51 49 39 35 35 40 33 26 26 29 30 32 30 31 29 28 28 26 25 22 26 28 31 32 30 25 23 15 14 12 17 24 26 25 19 16 18 14 10 4
49 50 52 52 51 49 39 30 28 32 32 29 26 25 27 27 31 31 30 28 26 23 23 27 26 27 31 32 33 34 26 20 9 5 10 20 22 24 21 18 17 11 12 8
50 50 51 52 51 49 38 31 29 31 25 27 26 25 27 22 22 30 28 27 26 25 22 23 25 29 29 31 33 29 19 14 18 18 18 22 21 19 24 19 17 12 10 11
51 50 51 51 51 47 37 30 28 28 28 27 23 27 27 24 29 27 26 25 26 26 23 21 20 27 26 24 28 27 24 18 22 16 21 22 21 21 21 23 23 21 21 21
51 49 50 51 51 44 36 36 35 30 27 24 20 23 27 26 27 30 30 29 27 26 28 29 28 29 29 28 25 25 22 21 17 7 18 15 4 8 20 21 22 22 18 15
50 49 50 51 51 43 38 36 35 31 27 25 21 26 29 29 29 26 31 29 26 30 31 28 26 27 29 29 29 28 23 21 21 17 10 2 4 11 16 19 19 22 21 20
50 50 49 51 51 46 39 37 37 34 28 29 27 27 29 30 29 29 30 32 31 31 24 20 18 18 19 25 27 28 26 23 20 15 14 12 13 17 17 15 15 19 20 20
50 49 49 49 50 47 40 38 38 37 31 23 29 28 29 27 26 27 31 33 33 28 23 19 18 16 15 17 22 28 28 25 19 19 14 10 13 19 21 20 13 19 22 22
50 50 50 49 50 47 42 39 38 38 33 32 28 26 27 29 27 26 27 29 29 29 23 19 18 18 18 16 19 23 25 25 23 20 19 20 21 21 22 13 14 22 24 24
51 50 50 49 49 48 43 39 38 37 34 33 34 33 29 29 29 27 28 28 29 27 22 21 21 18 19 18 20 24 23 24 24 24 22 18 24 22 17 19 23 24 25 25
52 51 50 50 50 48 44 40 41 39 35 33 35 34 34 33 32 30 30 28 29 29 25 24 23 23 21 19 17 22 19 23 23 24 24 25 24 22 23 23 24 24 25 26
52 51 51 51 51 49 45 40 39 38 35 34 34 33 32 34 33 35 31 31 32 30 29 27 26 24 24 21 19 19 22 24 23 22 22 26 26 27 27 26 26 27 26 26
53 53 52 51 51 50 45 42 40 37 34 31 30 33 30 32 33 34 34 33 34 33 32 29 28 26 26 24 23 20 22 24 23 23 24 24 25 26 26 26 27 27 27 27
48 51 52 51 51 50 46 44 42 39 36 31 31 32 31 33 33 32 33 34 33 32 30 27 28 28 27 26 26 25 26 24 23 22 24 24 25 26 28 27 28 28 28 27
46 48 51 51 51 48 45 39 40 40 39 32 29 31 29 32 32 33 31 33 32 31 30 29 28 28 29 25 24 27 28 28 26 26 29 29 29 29 27 26 26 27 27 26
43 46 48 51 50 47 42 38 38 42 39 35 27 26 30 30 31 31 31 31 30 30 29 28 28 28 30 27 25 28 29 29 30 29 28 28 28 26 25 24 24 23 18 18
42 43 46 48 50 47 44 43 45 40 37 34 23 24 25 30 29 28 30 29 29 29 28 28 28 28 28 27 29 28 29 30 29 29 28 28 27 25 23 22 19 17 16 16
42 43 45 48 45 42 43 46 44 42 36 28 24 22 22 29 28 28 29 28 28 29 28 27 29 29 26 29 28 27 28 28 28 28 28 28 26 25 23 20 17 15 15 13
43 43 44 39 42 46 45 41 38 38 38 35 30 25 24 28 26 28 26 27 26 26 28 31 30 27 29 29 29 29 29 26 27 23 24 26 23 23 19 18 16 14 13 15
40 39 35 42 45 42 40 33 32 33 32 33 33 27 27 29 26 26 28 26 26 22 21 26 26 23 25 26 25 26 26 24 23 25 26 28 26 23 19 16 15 15 16 17
40 39 41 41 35 33 31 29 31 31 31 33 30 28 30 29 30 29 29 26 27 23 23 24 21 23 24 24 24 23 19 20 21 21 22 19 20 20 17 15 17 18 19 21
40 36 33 32 31 26 26 21 27 28 29 31 30 29 31 31 32 31 29 26 22 24 24 19 19 21 23 23 24 19 17 17 16 15 15 15 15 17 16 17 19 20 20 20
34 31 28 27 22 23 26 23 25 27 27 30 29 29 30 31 30 29 22 24 23 20 18 14 18 21 22 23 24 18 13 14 15 17 18 19 19 19 20 20 19 19 19 20
32 32 25 24 26 20 18 19 24 26 31 29 26 27 28 27 27 27 23 20 17 18 14 18 18 21 23 23 22 19 20 20 19 19 17 15 17 19 19 20 20 20 20 20
31 31 25 26 22 25 23 22 24 28 30 28 28 25 26 25 25 23 21 17 14 17 20 21 21 22 22 22 21 19 19 19 19 20 20 20 18 20 20 20 20 19 19 19
31 28 28 22 17 22 25 26 27 30 28 26 26 24 23 24 21 20 18 14 18 20 20 21 22 21 17 16 18 20 20 20 21 21 21 20 20 12 11 14 17 18 20 20

GFSNW_sfc_dewp_156.txt.gz
Dewpoint
50 50 51 52 52 50 45 42 37 42 40 36 33 33 30 34 30 32 29 28 25 22 23 23 23 21 27 31 31 24 25 19 21 18 27 28 25 20 15 11 11 13 10 12
50 50 51 51 51 50 42 37 37 42 38 34 32 31 31 32 30 31 29 28 27 26 25 22 26 28 31 32 30 25 22 17 19 15 20 25 24 24 19 16 18 14 8 3
51 51 51 51 51 50 40 33 39 35 34 31 27 25 25 27 32 31 29 28 26 24 24 27 25 26 31 32 33 34 26 19 12 8 12 21 21 24 21 17 19 9 8 3
52 51 51 52 51 48 40 34 32 33 32 28 28 27 25 22 22 29 28 26 26 23 20 21 25 29 28 31 32 28 20 17 22 18 18 21 20 20 24 19 16 9 8 11
51 50 51 51 51 45 40 34 32 30 29 28 24 28 27 24 28 26 24 26 26 24 20 21 19 26 24 22 27 26 24 24 21 21 21 20 18 18 19 22 21 20 19 18
51 50 50 51 50 45 39 39 36 32 28 25 22 26 27 27 27 30 29 27 27 26 28 28 29 29 29 28 25 24 22 22 19 12 17 14 10 8 16 19 21 19 12 13
50 50 49 51 50 44 40 39 37 33 28 26 22 27 28 28 28 26 30 29 24 30 30 29 27 29 30 29 29 27 21 21 23 23 13 14 8 12 16 16 16 20 20 20
50 50 49 50 50 45 41 41 39 36 29 31 27 27 29 30 29 30 30 32 32 31 26 22 19 19 20 25 29 29 26 23 22 21 15 14 14 16 18 16 16 18 19 20
50 49 49 50 50 46 42 42 42 39 32 26 28 29 29 27 27 29 32 34 33 29 24 20 19 17 16 18 23 29 28 25 21 18 16 11 14 19 21 20 15 19 22 23
51 50 49 49 50 46 44 42 42 41 35 33 29 28 29 29 28 27 30 32 32 30 25 21 20 21 19 16 18 24 27 27 24 20 19 18 19 21 23 15 16 22 24 24
52 51 50 49 50 48 45 43 42 39 37 35 36 32 30 31 30 28 30 30 30 29 24 23 23 21 19 18 20 23 22 24 24 24 23 21 24 22 19 20 23 24 25 26
52 51 50 50 50 48 45 43 43 41 38 36 38 36 35 34 33 32 32 29 30 30 27 26 24 22 21 19 16 24 19 24 22 25 22 26 26 24 24 24 25 27 27 28
52 52 51 51 51 49 46 44 42 40 38 36 36 36 35 35 34 35 32 32 32 31 31 28 27 25 25 22 21 21 22 25 23 22 23 26 27 27 27 27 27 28 29 29
49 52 52 51 51 51 46 45 43 39 36 35 32 34 34 34 34 35 35 34 35 34 35 32 30 27 28 25 24 22 24 25 23 23 24 24 25 26 27 28 29 29 29 29
46 47 50 52 51 51 47 45 43 41 38 35 34 34 34 34 34 34 35 35 35 34 34 34 31 31 28 28 28 26 25 24 23 20 24 24 26 27 30 29 29 28 28 28
43 45 47 49 51 49 46 43 43 42 42 39 36 33 33 34 34 34 34 35 34 34 33 33 32 31 31 29 27 28 28 28 27 26 28 29 30 30 28 26 26 26 27 28
42 43 45 47 51 48 43 39 41 43 42 38 36 34 32 33 34 34 34 34 34 34 33 32 31 31 34 31 26 25 28 29 30 30 30 30 30 28 27 25 24 24 20 21
40 41 42 45 49 47 45 44 44 42 39 37 35 33 29 32 31 31 33 33 33 33 33 32 31 31 32 29 30 30 30 30 30 30 30 29 28 28 28 25 22 19 17 16
42 43 43 46 46 43 44 46 44 43 38 36 32 32 32 31 30 31 32 32 30 32 31 31 31 30 28 30 30 30 30 30 29 30 29 28 28 28 28 26 22 19 16 15
43 43 43 41 42 46 46 42 39 38 39 36 33 30 29 31 30 29 31 30 29 28 29 32 30 27 30 30 30 30 31 31 29 29 28 28 28 26 23 21 20 18 16 14
41 39 37 43 45 42 40 33 33 34 32 34 34 30 29 30 30 29 30 29 29 25 26 27 26 25 26 27 29 29 27 26 27 27 26 26 28 29 25 19 18 16 16 19
41 40 42 41 36 33 33 31 33 31 31 33 32 29 30 30 31 30 29 28 27 24 27 26 23 27 27 27 26 26 23 21 22 24 25 22 21 22 20 18 22 22 22 24
41 37 33 33 33 27 28 24 28 30 32 33 31 31 31 32 33 31 31 27 26 26 25 23 25 25 24 26 26 22 19 19 18 17 18 16 16 17 16 18 19 19 18 19
33 31 27 27 26 28 28 27 30 32 33 32 32 31 32 32 31 30 28 28 24 23 21 21 26 25 24 24 24 18 18 17 18 23 24 23 22 20 21 20 19 19 19 20
32 31 26 26 28 27 24 24 28 28 34 32 29 30 30 30 30 30 26 23 22 22 23 25 27 23 25 25 22 16 17 20 23 22 23 23 22 21 19 20 21 21 20 19
32 31 28 27 27 27 25 25 28 31 32 31 30 29 28 29 29 24 24 22 20 24 27 27 22 24 24 24 21 20 20 18 19 22 23 24 23 22 21 22 21 19 18 19
31 28 32 28 27 27 26 26 28 31 31 30 29 26 25 27 25 23 24 23 26 27 26 24 24 25 23 22 20 19 20 19 19 21 21 23 25 22 21 20 20 21 21 23

GFSNW_sfc_dewp_162.txt.gz
Dewpoint
52 51 51 51 52 52 50 48 42 48 45 41 35 34 33 34 31 33 32 30 28 24 23 23 22 23 29 30 30 23 21 22 23 21 26 26 26 22 17 18 13 13 12 18
52 52 51 51 51 50 46 42 38 48 44 37 33 33 31 32 31 31 30 29 29 27 25 25 25 27 30 32 30 27 28 20 20 20 23 25 24 22 19 15 21 13 11 10
52 52 52 51 51 50 47 40 41 41 39 34 30 28 27 29 35 31 29 28 27 24 21 25 24 27 32 31 31 36 32 20 17 17 23 22 20 22 21 18 21 15 11 8
52 52 51 51 52 50 46 40 36 36 34 30 27 28 25 24 27 29 27 27 25 22 19 20 22 25 28 30 34 27 24 22 20 18 20 20 20 21 20 18 19 14 14 15
52 51 51 51 51 50 46 40 36 34 29 28 27 29 27 26 28 29 25 26 25 26 24 25 24 26 25 24 23 22 22 23 21 19 19 18 16 17 20 21 20 19 18 15
52 50 50 51 51 49 43 41 39 37 33 27 25 28 29 29 29 32 30 29 27 28 30 30 29 28 28 27 25 22 20 22 22 18 13 15 15 15 16 18 19 17 12 18
52 50 49 50 51 48 45 42 41 38 29 29 26 30 30 30 30 30 30 31 28 32 31 29 29 29 28 28 28 26 20 21 23 23 21 16 12 15 18 17 18 19 17 19
52 50 49 50 50 49 45 43 43 39 32 30 28 29 30 30 30 31 32 32 32 31 29 27 22 22 22 25 28 28 26 23 23 22 18 16 11 16 17 18 19 19 18 21
53 51 49 49 50 48 46 45 44 42 37 30 29 29 30 29 28 30 33 34 32 31 28 24 22 18 17 21 25 29 28 25 23 19 17 14 17 19 21 21 17 21 22 23
54 51 49 49 49 48 47 45 44 44 37 34 32 30 30 31 29 30 31 32 32 31 27 24 22 21 20 18 21 23 26 25 23 21 19 21 20 21 23 17 17 24 24 25
54 52 50 49 49 48 47 45 45 43 39 37 37 34 32 32 32 29 32 31 31 30 26 25 25 23 21 20 20 24 23 23 24 23 20 17 23 22 20 23 25 25 26 27
54 52 51 50 50 49 47 45 44 42 41 40 39 38 36 35 35 34 33 32 30 33 29 28 26 23 21 19 15 25 18 22 22 23 24 26 24 24 25 26 26 27 27 29
52 53 52 51 51 49 47 46 45 44 40 40 38 37 36 36 35 36 35 34 34 32 33 31 30 26 26 22 21 24 22 25 23 22 21 27 27 26 26 26 27 29 30 30
48 50 52 52 51 51 48 46 46 44 40 36 35 35 34 35 35 36 36 35 35 34 36 34 31 28 28 24 24 24 24 24 23 23 23 23 24 26 26 28 29 30 30 29
44 45 47 49 51 51 49 47 46 45 41 37 36 35 34 35 35 35 35 36 35 35 34 33 32 32 29 29 28 27 25 24 22 21 22 23 26 27 30 30 30 29 28 28
41 43 43 46 48 51 47 43 47 45 44 40 34 35 34 34 35 35 35 36 35 36 34 34 34 32 31 29 27 28 25 25 24 23 29 28 29 30 30 30 28 28 27 28
41 41 42 43 47 49 44 41 43 45 45 41 35 35 32 34 34 35 35 35 35 35 35 33 33 32 32 30 28 27 25 26 27 29 29 28 30 29 28 28 28 27 25 22
43 41 42 42 44 48 45 45 46 45 42 40 34 33 30 33 33 32 34 34 34 34 33 32 31 32 32 29 32 29 28 29 30 30 30 31 30 29 29 29 29 26 24 21
43 43 43 45 45 43 44 46 46 45 41 36 34 33 31 33 32 33 32 34 31 32 30 31 32 30 29 30 30 29 30 30 30 31 31 30 29 29 27 28 27 28 25 19
43 43 42 38 43 46 46 43 40 39 40 36 33 35 30 32 31 31 31 31 30 28 29 32 30 27 30 30 31 31 31 32 31 27 27 29 26 28 28 24 24 23 22 18
41 38 37 43 46 42 40 34 33 34 32 34 34 34 30 32 30 30 32 30 30 25 28 28 27 25 28 28 29 30 31 32 31 30 28 28 29 29 27 21 21 19 18 18
40 40 42 42 36 34 33 32 33 32 31 33 32 33 32 31 32 32 30 29 29 23 28 25 23 26 29 28 28 29 31 30 27 27 27 28 28 30 26 20 20 21 21 22
40 37 34 33 32 29 29 26 29 30 32 33 32 31 31 31 33 32 30 28 25 26 24 23 23 28 28 29 27 26 24 25 25 25 23 22 21 22 20 20 20 22 19 19
33 29 23 26 20 26 30 31 31 32 33 34 34 28 29 32 31 32 28 29 25 24 22 18 26 28 28 28 27 22 23 23 23 22 22 21 21 21 21 20 19 18 18 19
31 31 21 22 27 28 25 25 27 29 35 34 32 32 31 31 31 31 27 23 21 22 20 25 28 25 26 27 24 22 21 22 22 22 21 21 21 20 19 20 21 20 20 19
30 29 27 29 24 23 25 25 27 32 35 34 33 31 30 29 31 27 21 18 16 22 26 28 27 24 26 26 21 20 19 21 22 23 23 23 21 21 22 21 20 20 19 19
26 26 29 26 27 25 26 27 28 33 34 26 32 28 28 31 27 23 24 21 25 26 26 27 26 26 26 25 19 20 20 20 21 22 22 22 22 17 19 19 19 21 21 21

GFSNW_sfc_dewp_165.txt.gz
Dewpoint
52 51 51 51 52 52 48 43 36 44 44 35 33 29 32 34 30 33 31 29 28 25 24 23 23 25 29 31 31 26 23 23 21 21 26 26 26 23 18 18 5 12 15 17
52 52 52 51 51 51 43 36 34 45 41 31 28 31 31 32 31 30 30 29 29 26 24 23 25 28 30 32 30 25 25 19 17 14 20 22 21 23 20 16 20 11 11 9
52 53 52 51 51 51 44 36 33 36 35 32 28 27 26 29 33 31 29 27 27 24 21 25 24 27 32 31 30 37 31 20 17 10 16 21 18 21 20 19 15 14 12 6
52 52 51 51 51 51 44 37 31 32 28 27 27 25 23 23 26 29 27 26 26 23 20 21 22 24 27 30 32 27 24 17 18 18 19 19 20 21 19 16 18 11 13 11
53 52 51 51 51 51 41 35 35 34 28 27 28 29 24 26 27 28 26 26 27 27 25 26 25 26 25 24 25 22 23 18 19 18 17 16 14 17 21 19 19 18 17 14
53 51 50 51 51 48 40 40 38 35 34 27 25 27 27 29 29 31 30 29 26 28 29 30 31 30 27 27 25 24 19 20 21 13 13 15 14 14 17 19 20 16 10 15
53 51 49 50 51 48 43 40 40 35 29 27 25 28 29 29 30 29 30 31 29 31 31 28 27 30 27 28 28 26 21 20 23 19 21 13 17 15 18 15 17 19 17 20
54 51 49 49 50 50 43 43 41 37 32 29 26 28 29 29 30 30 32 32 32 31 28 25 22 22 21 24 27 28 26 23 20 21 18 17 11 13 14 14 18 19 18 22
54 51 49 49 49 50 45 43 43 40 33 29 30 28 29 29 28 30 32 33 33 31 28 24 21 17 17 20 22 29 28 25 23 18 14 8 17 18 20 20 15 22 23 23
54 52 50 48 49 49 46 43 43 42 35 34 31 29 30 31 30 29 31 32 31 31 27 23 21 21 19 17 19 23 24 24 20 20 18 18 19 20 22 16 12 23 23 24
55 53 50 49 48 48 46 43 44 41 37 37 36 34 31 32 31 29 31 30 30 29 23 24 24 22 21 18 22 23 22 22 21 22 20 8 22 22 16 19 24 24 25 26
54 53 51 50 49 48 47 43 44 42 38 38 38 37 35 35 34 34 33 31 30 32 28 27 25 22 21 19 13 24 17 22 21 20 19 24 23 22 24 26 26 26 26 29
52 53 52 51 50 49 47 44 43 42 39 39 37 36 35 35 35 36 33 33 33 31 33 31 29 24 25 20 21 20 23 25 22 19 19 27 25 24 25 26 27 28 30 30
48 50 52 51 51 50 48 45 44 42 39 32 34 35 34 35 35 35 36 35 35 34 35 32 30 27 28 24 23 23 23 23 22 22 23 23 24 26 27 27 29 30 30 29
43 45 47 50 51 51 48 47 46 45 39 35 36 35 35 35 34 35 35 35 35 34 32 30 30 32 29 29 28 27 25 23 22 20 22 21 23 27 28 29 30 29 28 27
42 42 43 44 48 51 47 42 47 46 43 36 31 34 32 34 35 35 35 35 35 35 33 32 34 33 30 27 26 29 27 25 24 21 24 26 27 28 30 30 29 27 27 27
43 42 42 43 45 49 44 41 43 45 45 40 34 34 32 34 34 35 35 35 35 34 33 32 33 32 31 28 28 29 29 27 27 27 28 29 29 29 29 28 28 29 25 23
42 43 43 42 43 47 45 46 46 46 43 40 33 32 29 33 32 32 34 34 34 34 32 32 31 31 31 28 30 30 29 28 28 29 29 29 30 29 29 29 28 26 25 23
42 43 43 44 44 43 44 46 46 45 41 35 34 32 26 32 31 33 32 34 30 32 30 31 32 29 28 29 29 29 30 30 30 30 30 30 30 29 29 28 28 28 26 22
43 42 41 38 42 46 46 43 40 39 40 37 34 35 30 31 31 31 31 31 30 29 29 31 30 29 30 30 30 31 31 31 31 26 27 28 27 28 27 25 25 27 26 20
39 37 36 43 46 42 40 34 33 33 32 34 34 35 30 32 30 30 32 30 30 24 24 28 27 25 27 28 28 29 30 32 31 30 30 30 28 28 26 22 22 20 19 18
38 38 41 41 36 33 33 31 32 31 31 33 33 33 32 31 33 32 31 30 29 23 28 26 22 25 28 29 28 28 30 31 30 28 27 27 28 29 26 21 20 20 21 22
38 35 33 32 32 28 28 18 28 30 32 33 32 31 31 30 34 32 31 28 25 27 25 22 23 26 27 28 28 26 26 26 26 26 27 25 26 25 20 20 20 20 20 19
30 26 17 24 16 26 28 29 30 32 32 33 33 31 31 32 31 31 27 28 27 23 22 19 24 28 26 27 27 23 23 24 23 21 22 22 22 20 21 21 20 18 17 18
27 28 19 12 24 28 27 27 29 31 34 34 32 32 32 29 30 31 26 22 22 23 20 22 26 26 24 26 25 23 22 23 21 21 22 21 21 19 18 19 20 20 19 18
27 27 25 27 22 26 23 19 24 28 35 33 32 31 29 28 28 27 20 16 13 18 22 27 26 25 25 26 25 22 21 21 21 22 22 22 21 20 20 21 19 18 18 18
19 22 27 23 21 24 27 27 28 32 32 28 31 27 26 30 27 25 26 23 27 31 31 28 27 25 25 26 21 20 20 20 21 21 21 21 22 18 18 17 16 20 21 21